Das Wetter in  D-61279 Heinzenberg / Taunus





Wetter Minimum- & Maximum-Werte im Mrz 2009

Standort: Heinzenberg / Taunus - Höhe 297 m         8 24' 1" Ost 50 21' 51" Nord
(   3-stündige Aktualisierung    letzte Aktualisierung um 19:04 am 31.03.2009  )


Messgrösse

Minimum

Maximum

Durchschnitt

Temperatur West /
Luftfeuchte West
Anklicken für Monats-Diagramm

-6,0 C

06:32
21.03.2009

33 %

16:22
21.03.2009

16,7 C

16:45
31.03.2009

94 %

06:48
06.03.2009

Temp

4,3 C

Feuchte

79 %

Temperatur Ost /
Luftfeuchte Ost
Anklicken für Monats-Diagramm

-5,4 C

06:52
21.03.2009

--

--
--

15,5 C

17:50
31.03.2009

--

--
--

4,6 C

--

Luftdruck Anklicken für Monats-Diagramm

985,1 hPa

11:47
05.03.2009

1037,0 hPa

03:14
18.03.2009

1015,1 hPa

Taupunkt

-9,4 C

06:32
21.03.2009

7,3 C

16:10
14.03.2009

0,8 C

Windchill
( gefühlte Temperatur )

-13,8 C

05:45
24.03.2009

15,8 C

17:30
31.03.2009

0,0 C

Windgeschwindigkeit /
Windrichtung
Anklicken für Monats-Diagramm

---

53,8 km/h / W

12:32
27.03.2009

12,1 km/h
W-SW

Helligkeit /
Sonnenschein
Anklicken für Monats-Diagramm
Anklicken für Monats-Diagramm

Sonnenschein:

108:31 Stunden

Max: 11:15 Std am
31.03.2009

118,0 klux

13:23
29.03.2009

23 klux

Solarstrahlung Anklicken für Monats-Diagramm

---

807 W/m

13:23
29.03.2009

170 W/m

Regenmenge
    Mrz 2009
Anklicken für Monats-Diagramm

Insgesamt 84,2 l/m

in 135:44 Stunden
an 22 Tagen

25,4 l/m

00:28
06.03.2009

Gesamtmenge

84,2 l/m

Regen-Tage
    Mrz 2009
Anklicken für Monats-Diagramm

>   0 mm/Tag

>   2 mm/Tag

>   5 mm/Tag

> 10 mm/Tag

> 20 mm/Tag

22 Tage     
11 Tage     
7 Tage     
2 Tage     
  1 Tag     

Eisige Tage Mrz 2009 / 2008

Tmin ≤ -10C     

0 Tage

/

0 Tage

Eistage Mrz 2009 / 2008

Tmax <     0C     

0 Tage

/

0 Tage

Frosttage Mrz 2009 / 2008

Tmin ≤     0C     

10 Tage

/

13 Tage

Kalte Tage Mrz 2009 / 2008

Tmax <   10C     

20 Tage

/

20 Tage

Warme Tage Mrz 2009 / 2008

Tmax ≥   20C     

0 Tage

/

  1 Tag

Sommertage Mrz 2009 / 2008

Tmax ≥   25C     

0 Tage

/

0 Tage

Heisse Tage Mrz 2009 / 2008

Tmax ≥   30C     

0 Tage

/

0 Tage


Monatsdiagramm Mrz 2009

Die Kurven zeigen den Durchschnittswert des jeweiligen Tages an


Wetter-Monatsübersicht Mrz 2009
Datum
  Temperatur
   Luftdruck
   Wind
  Regen
   Luftfeuchte
   Helligkeit

Sonnen-
schein


Temp.

Min.
Temp.

Max.
Temp.


Luftdruck

Min.
Luftdruck

Max.
Luftdruck

-Geschw.
Haupt-Richtg.

Max.
Wind

Menge /
Dauer


Feuchte

Min.
Feuchte

Max.
Feuchte


Helligkeit

Max.
Helligkeit

1.
Mrz
7,1 C2,4 C
03:23
11,6 C
13:38
1011,0 hPa1008,6 hPa
17:33
1013,6 hPa
02:18
9,6 km/h
W-SW
25,3 km/h
15:28  
---
35 Minuten
82 %66 %
15:33
93 %
04:43
23,7 klux67,1 klux
12:38
3:40 Std 
2.
Mrz
6,2 C0,3 C
23:50
8,8 C
00:04
1014,0 hPa1010,8 hPa
00:04
1019,2 hPa
23:50
6,4 km/h
W-SW
22,1 km/h
15:29  
1,4 l/m
6:35 Stunden
86 %74 %
17:09
92 %
07:44
8,4 klux44,5 klux
15:14
25 Min 
3.
Mrz
2,8 C-1,6 C
07:40
9,6 C
15:55
1014,9 hPa1006,6 hPa
23:56
1019,4 hPa
01:55
5,7 km/h
W-SW
27,4 km/h
15:40  
---
10 Minuten
77 %53 %
15:40
93 %
10:10
28,7 klux79,7 klux
12:50
5:20 Std 
4.
Mrz
5,3 C0,9 C
04:46
12,3 C
16:16
994,7 hPa987,5 hPa
22:32
1006,6 hPa
00:01
14,0 km/h
O-SO
38,6 km/h
15:21  
---
71 %46 %
16:01
85 %
07:36
28,8 klux70,9 klux
12:26
5:40 Std 
5.
Mrz
3,6 C1,2 C
03:02
7,2 C
11:47
986,9 hPa985,1 hPa
11:47
989,8 hPa
23:43
6,1 km/h
NW
21,1 km/h
11:12  
2,6 l/m
5:46 Stunden
85 %77 %
11:52
91 %
22:43
9,3 klux39,6 klux
10:37
15 Min 
6.
Mrz
2,7 C2,1 C
23:49
3,4 C
15:03
996,4 hPa989,8 hPa
00:28
1005,4 hPa
23:49
12,3 km/h
W-NW
24,7 km/h
23:54  
25,4 l/m
24:00 Stunden
94 %91 %
00:03
94 %
06:48
5,0 klux13,5 klux
12:43
--- 
7.
Mrz
3,5 C0,3 C
04:44
9,3 C
15:54
1011,7 hPa1005,4 hPa
00:04
1014,7 hPa
20:54
15,8 km/h
W-NW
38,4 km/h
13:34  
2,7 l/m
5:25 Stunden
80 %56 %
15:29
94 %
00:04
36,2 klux73,1 klux
11:49
7:20 Std 
8.
Mrz
5,2 C3,5 C
08:19
7,3 C
16:29
1008,0 hPa1003,9 hPa
21:14
1014,5 hPa
00:04
18,2 km/h
W-SW
39,7 km/h
10:34  
5,6 l/m
7:05 Stunden
86 %76 %
00:04
92 %
14:29
12,0 klux74,5 klux
10:14
50 Min 
9.
Mrz
3,2 C0,7 C
08:30
7,3 C
15:55
1010,2 hPa1004,2 hPa
00:00
1015,8 hPa
23:56
23,4 km/h
W
48,5 km/h
16:20  
2,4 l/m
2:30 Stunden
80 %61 %
16:10
89 %
07:35
18,9 klux89,5 klux
13:45
2:05 Std 
10.
Mrz
3,3 C1,8 C
00:51
4,7 C
22:21
1010,9 hPa1006,2 hPa
21:06
1015,8 hPa
00:51
20,1 km/h
W-SW
39,2 km/h
20:51  
6,4 l/m
13:35 Stunden
89 %86 %
00:01
93 %
20:56
11,3 klux30,6 klux
10:41
--- 
11.
Mrz
3,6 C1,2 C
04:17
7,8 C
15:12
1020,7 hPa1011,5 hPa
00:02
1026,2 hPa
22:57
13,9 km/h
W-NW
34,0 km/h
14:57  
1,2 l/m
3:50 Stunden
86 %74 %
15:47
92 %
06:47
24,1 klux97,2 klux
12:42
2:55 Std 
12.
Mrz
4,0 C1,2 C
00:32
6,4 C
21:13
1022,2 hPa1018,4 hPa
21:13
1026,3 hPa
00:32
13,6 km/h
W-SW
34,9 km/h
23:29  
1,8 l/m
11:15 Stunden
89 %82 %
05:28
94 %
23:54
6,7 klux20,8 klux
12:23
--- 
13.
Mrz
6,6 C1,5 C
23:45
11,9 C
14:39
1021,4 hPa1018,4 hPa
00:04
1023,1 hPa
22:55
9,0 km/h
W-NW
26,6 km/h
00:09  
0,5 l/m
1:50 Stunden
82 %62 %
14:39
94 %
00:04
28,8 klux81,0 klux
12:04
4:40 Std 
14.
Mrz
6,3 C0,3 C
04:05
13,1 C
16:20
1018,4 hPa1015,4 hPa
16:20
1022,2 hPa
00:55
9,4 km/h
W-SW
28,0 km/h
22:00  
0,5 l/m
2:05 Stunden
83 %67 %
14:30
92 %
08:20
24,5 klux61,5 klux
11:20
3:55 Std 
15.
Mrz
6,8 C5,3 C
04:56
9,4 C
14:06
1026,0 hPa1020,4 hPa
00:01
1031,9 hPa
23:57
18,0 km/h
W-NW
35,8 km/h
14:26  
0,8 l/m
1:10 Stunden
83 %70 %
14:06
91 %
04:51
15,2 klux92,5 klux
11:41
35 Min 
16.
Mrz
5,7 C3,5 C
06:12
7,4 C
15:17
1033,4 hPa1031,9 hPa
00:02
1034,2 hPa
08:22
3,2 km/h
NW
13,9 km/h
15:52  
---
84 %77 %
17:02
90 %
07:22
9,8 klux29,8 klux
13:27
--- 
17.
Mrz
6,3 C0,7 C
23:49
12,4 C
16:28
1033,8 hPa1032,0 hPa
03:23
1036,7 hPa
23:49
3,9 km/h
NW
17,5 km/h
13:13  
---
79 %62 %
17:03
90 %
07:53
24,1 klux80,0 klux
12:23
4:25 Std 
18.
Mrz
3,3 C-3,0 C
06:19
11,0 C
14:29
1033,1 hPa1028,2 hPa
22:09
1037,0 hPa
03:14
2,8 km/h
SO
15,4 km/h
12:24  
---
69 %34 %
15:54
90 %
09:19
34,9 klux77,5 klux
12:19
8:00 Std 
19.
Mrz
3,1 C-3,2 C
07:15
11,6 C
14:35
1027,4 hPa1024,9 hPa
14:35
1031,8 hPa
23:51
6,1 km/h
NO
28,0 km/h
13:00  
---
65 %43 %
14:35
82 %
07:30
32,6 klux88,0 klux
10:45
5:10 Std 
20.
Mrz
1,1 C-4,0 C
07:06
9,0 C
14:11
1032,2 hPa1030,6 hPa
16:11
1034,1 hPa
08:51
5,0 km/h
SO
30,3 km/h
11:46  
---
63 %41 %
16:36
79 %
07:31
40,1 klux92,1 klux
13:36
8:10 Std 
21.
Mrz
1,9 C-6,0 C
06:32
11,1 C
15:27
1029,7 hPa1026,1 hPa
16:57
1033,1 hPa
00:37
3,4 km/h
W
17,2 km/h
15:02  
---
60 %33 %
16:22
80 %
08:02
44,3 klux77,1 klux
12:27
10:50 Std 
22.
Mrz
3,4 C-2,2 C
04:07
8,2 C
13:33
1025,7 hPa1023,6 hPa
23:29
1027,4 hPa
00:28
13,6 km/h
W-NW
33,7 km/h
23:29  
---
70 %61 %
00:03
84 %
11:18
18,0 klux96,5 klux
12:58
1:30 Std 
23.
Mrz
5,3 C1,2 C
21:14
9,6 C
13:39
1012,5 hPa1002,9 hPa
19:29
1023,7 hPa
00:44
25,4 km/h
W
45,5 km/h
15:09  
11,1 l/m
9:25 Stunden
81 %61 %
13:39
91 %
21:29
12,3 klux95,8 klux
13:19
10 Min 
24.
Mrz
1,8 C-1,9 C
23:55
6,4 C
14:10
1007,8 hPa1003,5 hPa
02:45
1014,1 hPa
22:05
18,2 km/h
W-NW
42,4 km/h
17:15  
1,7 l/m
4:39 Stunden
82 %68 %
13:30
91 %
04:05
24,7 klux108,0 klux
11:30
2:45 Std 
25.
Mrz
0,8 C-2,7 C
01:35
3,5 C
16:00
1004,3 hPa998,0 hPa
15:55
1013,3 hPa
01:35
16,2 km/h
W-SW
33,9 km/h
16:35  
5,9 l/m
12:10 Stunden
87 %78 %
00:00
92 %
22:00
12 klux49 klux
12:25
--- 
26.
Mrz
4,3 C1,5 C
02:11
7,2 C
11:51
1006,1 hPa1001,8 hPa
23:57
1009,5 hPa
08:11
20,6 km/h
W-SW
37,9 km/h
13:41  
5,8 l/m
9:21 Stunden
88 %75 %
13:21
93 %
00:11
16,1 klux81,8 klux
10:46
2:25 Std 
27.
Mrz
5,6 C3,2 C
19:27
8,0 C
11:47
1001,5 hPa999,7 hPa
04:57
1002,2 hPa
19:27
21,7 km/h
W
53,8 km/h
12:32  
3,3 l/m
6:46 Stunden
81 %65 %
15:22
90 %
02:17
19,4 klux93,1 klux
10:47
2:05 Std 
28.
Mrz
5,6 C3,5 C
06:13
8,0 C
17:23
999,2 hPa995,5 hPa
12:18
1004,0 hPa
23:28
20,6 km/h
W-SW
47,1 km/h
14:38  
5,2 l/m
6:15 Stunden
79 %63 %
21:03
90 %
07:13
21,2 klux81,4 klux
09:13
2:55 Std 
29.
Mrz
4,9 C1,9 C
23:49
10,4 C
14:38
1009,1 hPa1004,0 hPa
00:03
1015,8 hPa
23:49
9,3 km/h
W-SW
27,3 km/h
00:03  
---
57 Minuten
77 %65 %
15:48
85 %
23:44
27,2 klux118,0 klux
13:23
2:56 Std 
30.
Mrz
4,2 C-2,5 C
06:54
14,0 C
16:54
1020,5 hPa1015,8 hPa
00:04
1025,3 hPa
23:45
4,5 km/h
SO
18,3 km/h
17:19  
---
20 Minuten
75 %46 %
16:59
92 %
10:09
42 klux96 klux
13:39
8:15 Std 
31.
Mrz
5,3 C-3,0 C
07:35
16,7 C
16:45
1023,7 hPa1020,2 hPa
16:45
1026,9 hPa
07:35
5,0 km/h
SO
21,0 km/h
13:50  
---
67 %41 %
16:45
88 %
10:00
47,2 klux84,3 klux
13:20
11:15 Std 



Mrz
2009

Temperatur

  

Luftdruck

  

Wind

  

Regen

  

Luftfeuchte

  

Helligkeit

Sonnen-
schein

Min

Max

Min

Max

Max

Max

Min

Max

Max

Max

4,3 C

-6,0 C

06:32 Uhr
21.03.2009

16,7 C

16:45 Uhr
31.03.2009

1015,1 hPa

985,1 hPa

11:47 Uhr
05.03.2009

1037,0 hPa

03:14 Uhr
18.03.2009

12,1 km/h

W-SW

53,8 km/h

12:32 Uhr
27.03.2009

25,4 l/m

24:00 Stunden
06.03.2009

79 %

33 %

16:22 Uhr
21.03.2009

94 %

06:48 Uhr
06.03.2009

22,8 klux

118,0 klux

13:23 Uhr
29.03.2009

11:15 Std

am
31.03.2009

Gesamt

Gesamt

84,2 l/m

22 Tage
135:44 h

108:31 Std


Wetter-Diagramme Mrz 2009     Heinzenberg / Taunus   
TemperaturLuftfeuchte
SolarstrahlungLuftdruck
HelligkeitSonnenschein
RegenmengeRegendauer
Wind-GeschwindigkeitWind-Richtung